Weather History for Stevens Point, WI

Change the Weather History Date:

Monday, September 3, 2012

  Actual Average Record
Temperature  
Mean Temperature 68 °F -  
Max Temperature 77 °F 75 °F 91 °F (1948)
Min Temperature 59 °F 54 °F 38 °F (1974)
Cooling Degree Days 3    
Growing Degree Days 18 (Base 50)    
Moisture  
Dew Point 63 °F    
Average Humidity 81    
Maximum Humidity 99    
Minimum Humidity 60    
Precipitation  
Precipitation 0.00 in - - ()
Sea Level Pressure  
Sea Level Pressure 29.94 in    
Wind  
Wind Speed 2 mph (SW)    
Max Wind Speed 10 mph    
Max Gust Speed -    
Visibility 9 miles    
Events      
Averages and records for this station are not official NWS values.
T = Trace of Precipitation, MM = Missing Value Source: NWS Daily Summary

Daily Weather History Graph

Daily Weather History Graph

Search for Another Location

Airport:

Trip Planner

Search our weather history database for the weather conditions in past years. The results will help you decide how hot, cold, wet, or windy it might be!

Date:

Astronomy

Sep. 03, 2012 Rise Set
Actual Time 6:23 AM CDT 7:30 PM CDT
Civil Twilight 5:53 AM CDT 7:59 PM CDT
Nautical Twilight 5:17 AM CDT 8:35 PM CDT
Astronomical Twilight 4:40 AM CDT 9:13 PM CDT
Moon 8:37 PM CDT (9/3) 9:42 AM CDT (9/3)
Length of Visible Light 14h 06m
Length of Day
13h 06m
Waning Gibbous, 90% of the Moon is Illuminated
Sep 3
Waning Gibbous
Sep 8
Last Quarter
Sep 15
New
Sep 22
First Quarter
Sep 29
Full

Hourly Weather History & Observations

Time (CDT) Temp. Dew Point Humidity Pressure Visibility Wind Dir Wind Speed Gust Speed Precip Events Conditions
12:15 AM 65.1 °F 57.4 °F 76% 29.97 in 10.0 mi Calm Calm - N/A   Clear
12:35 AM 64.0 °F 57.6 °F 79% 29.97 in 10.0 mi Calm Calm - N/A   Clear
12:55 AM 63.9 °F 57.7 °F 80% 29.98 in 10.0 mi Calm Calm - N/A   Clear
1:15 AM 63.5 °F 57.7 °F 81% 29.97 in 10.0 mi Calm Calm - N/A   Clear
1:35 AM 61.9 °F 57.4 °F 85% 29.98 in 10.0 mi Calm Calm - N/A   Clear
1:55 AM 62.4 °F 57.7 °F 85% 29.98 in 10.0 mi Calm Calm - N/A   Clear
2:15 AM 60.3 °F 57.0 °F 89% 29.97 in 10.0 mi Calm Calm - N/A   Clear
2:35 AM 59.9 °F 56.8 °F 90% 29.97 in 10.0 mi Calm Calm - N/A   Clear
2:55 AM 59.4 °F 57.4 °F 93% 29.97 in 10.0 mi East 3.5 mph - N/A   Clear
3:15 AM 59.9 °F 57.0 °F 90% 29.96 in 10.0 mi SE 3.5 mph - N/A   Clear
3:35 AM 62.6 °F 56.5 °F 80% 29.97 in 10.0 mi Calm Calm - N/A   Clear
3:55 AM 61.3 °F 56.8 °F 85% 29.98 in 10.0 mi Calm Calm - N/A   Clear
4:15 AM 59.4 °F 56.5 °F 90% 29.98 in 10.0 mi Calm Calm - N/A   Clear
4:35 AM 59.7 °F 56.8 °F 90% 29.98 in 10.0 mi Calm Calm - N/A   Clear
4:55 AM 59.9 °F 57.0 °F 90% 29.98 in 10.0 mi Calm Calm - N/A   Clear
5:15 AM 59.0 °F 56.3 °F 91% 29.97 in 10.0 mi Calm Calm - N/A   Clear
5:35 AM 59.2 °F 56.7 °F 91% 29.96 in 10.0 mi Calm Calm - N/A   Clear
5:55 AM 59.4 °F 56.5 °F 90% 29.97 in 10.0 mi Calm Calm - N/A   Clear
6:15 AM 60.6 °F 56.8 °F 87% 29.97 in 10.0 mi Calm Calm - N/A   Clear
7:15 AM 61.0 °F 57.7 °F 89% 29.97 in 10.0 mi Calm Calm - N/A   Clear
7:35 AM 63.5 °F 56.7 °F 78% 29.97 in 10.0 mi Calm Calm - N/A   Clear
7:55 AM 65.5 °F 56.3 °F 72% 29.97 in 10.0 mi SSW 3.5 mph - N/A   Clear
8:15 AM 67.8 °F 56.3 °F 67% 29.97 in 10.0 mi SSW 5.8 mph - N/A   Clear
8:35 AM 70.3 °F 57.0 °F 63% 29.97 in 10.0 mi SSW 5.8 mph - N/A   Clear
8:55 AM 72.5 °F 57.9 °F 60% 29.96 in 10.0 mi SSW 8.1 mph - N/A   Clear
9:15 AM 73.0 °F 59.5 °F 62% 29.96 in 10.0 mi SW 9.2 mph - N/A   Clear
9:35 AM 74.3 °F 61.2 °F 63% 29.97 in 10.0 mi SW 10.4 mph - N/A   Clear
9:55 AM 75.0 °F 62.4 °F 65% 29.96 in 10.0 mi West 8.1 mph - N/A   Clear
10:15 AM 75.6 °F 63.5 °F 66% 29.96 in 10.0 mi WSW 6.9 mph - N/A   Clear
10:35 AM 75.4 °F 64.0 °F 68% 29.96 in 10.0 mi SW 5.8 mph - N/A   Clear
10:55 AM 75.4 °F 64.4 °F 69% 29.96 in 10.0 mi SSW 5.8 mph - N/A   Clear
11:15 AM 74.7 °F 65.3 °F 73% 29.96 in 10.0 mi SW 6.9 mph - N/A   Clear
11:35 AM 74.7 °F 65.3 °F 73% 29.96 in 10.0 mi SW 3.5 mph - N/A   Scattered Clouds
11:55 AM 74.3 °F 65.3 °F 73% 29.96 in 10.0 mi SSW 4.6 mph - N/A   Scattered Clouds
12:15 PM 74.3 °F 65.7 °F 74% 29.96 in 10.0 mi WSW 3.5 mph - N/A   Clear
12:35 PM 74.7 °F 65.8 °F 74% 29.96 in 10.0 mi SW 4.6 mph - N/A   Clear
12:55 PM 74.7 °F 65.7 °F 73% 29.96 in 10.0 mi SW 3.5 mph - N/A   Scattered Clouds
1:15 PM 74.5 °F 66.2 °F 75% 29.95 in 10.0 mi WSW 3.5 mph - N/A   Overcast
1:35 PM 74.8 °F 66.4 °F 75% 29.94 in 10.0 mi South 6.9 mph - N/A   Scattered Clouds
1:55 PM 75.2 °F 66.6 °F 74% 29.94 in 10.0 mi Calm Calm - N/A   Clear
2:15 PM 75.4 °F 66.6 °F 74% 29.94 in 10.0 mi West 5.8 mph - N/A   Clear
2:35 PM 75.7 °F 66.6 °F 73% 29.94 in 10.0 mi West 5.8 mph - N/A   Scattered Clouds
2:55 PM 76.1 °F 66.0 °F 71% 29.91 in 10.0 mi West 3.5 mph - N/A   Clear
3:15 PM 77.5 °F 66.2 °F 68% 29.91 in 10.0 mi West 8.1 mph - N/A   Scattered Clouds
3:35 PM 76.6 °F 66.2 °F 70% 29.93 in 10.0 mi West 8.1 mph - N/A   Overcast
3:55 PM 77.0 °F 66.2 °F 69% 29.91 in 10.0 mi WSW 5.8 mph - N/A   Overcast
4:15 PM 76.8 °F 66.2 °F 70% 29.92 in 10.0 mi WSW 6.9 mph - N/A   Overcast
4:35 PM 75.0 °F 68.2 °F 79% 29.91 in 10.0 mi WSW 4.6 mph - N/A   Mostly Cloudy
4:55 PM 75.2 °F 68.7 °F 80% 29.91 in 10.0 mi WSW 5.8 mph - N/A   Clear
5:15 PM 75.0 °F 68.5 °F 80% 29.91 in 10.0 mi WSW 4.6 mph - N/A   Clear
5:35 PM 75.4 °F 68.0 °F 78% 29.91 in 10.0 mi WSW 5.8 mph - N/A   Clear
5:55 PM 76.1 °F 68.9 °F 78% 29.90 in 10.0 mi SW 3.5 mph - N/A   Clear
6:15 PM 75.4 °F 69.6 °F 82% 29.90 in 10.0 mi SSW 3.5 mph - N/A   Clear
6:35 PM 75.6 °F 68.9 °F 80% 29.89 in 10.0 mi Calm Calm - N/A   Clear
6:55 PM 75.0 °F 69.3 °F 82% 29.89 in 10.0 mi Calm Calm - N/A   Clear
7:15 PM 75.2 °F 68.9 °F 81% 29.90 in 10.0 mi Calm Calm - N/A   Clear
7:35 PM 74.5 °F 68.9 °F 83% 29.91 in 10.0 mi Calm Calm - N/A   Clear
7:55 PM 71.6 °F 68.9 °F 91% 29.90 in 10.0 mi Calm Calm - N/A   Clear
8:15 PM 70.0 °F 68.9 °F 96% 29.91 in 7.0 mi Calm Calm - N/A   Scattered Clouds
8:35 PM 69.8 °F 68.9 °F 97% 29.91 in 5.0 mi Calm Calm - N/A   Mostly Cloudy
8:55 PM 70.2 °F 69.3 °F 97% 29.91 in 7.0 mi Calm Calm - N/A   Overcast
9:15 PM 70.2 °F 69.1 °F 96% 29.92 in 7.0 mi Calm Calm - N/A   Overcast
9:35 PM 71.1 °F 68.9 °F 93% 29.91 in 7.0 mi South 4.6 mph - N/A   Overcast
9:55 PM 71.1 °F 68.9 °F 93% 29.91 in 7.0 mi Calm Calm - N/A   Mostly Cloudy
10:15 PM 71.4 °F 68.7 °F 91% 29.91 in 10.0 mi Calm Calm - N/A   Overcast
10:35 PM 70.9 °F 68.7 °F 93% 29.92 in 7.0 mi Calm Calm - N/A   Overcast
10:55 PM 69.4 °F 68.4 °F 96% 29.92 in 5.0 mi SSW 3.5 mph - N/A   Overcast
11:15 PM 69.1 °F 68.0 °F 96% 29.91 in 7.0 mi Calm Calm - N/A   Scattered Clouds
11:35 PM 69.6 °F 68.0 °F 95% 29.92 in 7.0 mi Calm Calm - N/A   Scattered Clouds
11:55 PM 68.0 °F 67.6 °F 99% 29.91 in 2.5 mi Calm Calm - N/A   Clear